Regional Weather Roundup
Issued by NWS

Home | Current Version | Previous Version | Text Only | Print | Product List | Glossary On
Versions: 1 2 3 4 5 6 7 8 9 10 11 12 13 14 15 16 17 18 19 20 21 22 23 24 25 26 27 28 29 30 31 32 33 34 35 36 37 38 39 40 41 42 43 44 45 46 47 48 49 50
000
ASUS43 KDTX 022310
RWRMI
MICHIGAN HOURLY REGIONAL WEATHER ROUNDUP
NATIONAL WEATHER SERVICE DETROIT/PONTIAC MI
700 PM EDT TUE JUN 02 2015

NOTE: "FAIR" INDICATES FEW OR NO CLOUDS BELOW 12,000 FEET WITH NO
SIGNIFICANT WEATHER AND/OR OBSTRUCTION TO VISIBILITY.

MIZ047>049-052>055-059>063-066>070-074>076-081>083-030000-
SOUTHEAST LOWER MICHIGAN

CITY           SKY/WX    TMP DP  RH WIND       PRES   REMARKS
ADRIAN         SUNNY     65  43  44 SE10      30.14F
ALMA           SUNNY     70  43  37 S5        30.12F
ANN ARBOR      MOSUNNY   67  50  54 S8        30.13S
BAD AXE        SUNNY     65  40  40 CALM      30.15S
CARO           MOSUNNY   68  42  39 E6        30.13S
DETROIT CITY   MOSUNNY   65  52  62 SE9       30.14S
DETROIT        PTSUNNY   68  52  56 S8        30.13F
FLINT          PTSUNNY   72  44  36 E5        30.12F
GROSSE ILE     MOSUNNY   66  52  59 E6        30.13S
HILLSDALE      SUNNY     67  48  51 E9        30.13S
HOWELL         SUNNY     70  44  38 SE8       30.12S

CITY           SKY/WX    TMP DP  RH WIND       PRES   REMARKS
JACKSON        SUNNY     69  49  48 SE9       30.12F
LAMBERTVILLE   SUNNY     64  43  45 E10G16    30.14F
LANSING        SUNNY     71  46  40 SE5       30.11F
LAPEER         FAIR      67  38  34 E3        30.14S
MASON          SUNNY     68  46  44 CALM      30.11F
MONROE         MOSUNNY   64  46  52 E9        30.12F
MT. CLEMENS    PTSUNNY   63  53  68 S8        30.12S
PONTIAC        PTSUNNY   69  42  37 SE8       30.12S
PORT HOPE        N/A     56  43  61 N3        30.16R
PORT HURON     SUNNY     64  41  42 NE6       30.15S
TRI CITIES     MOSUNNY   69  42  37 NE12      30.14F
MIDLAND        FAIR      68  42  37 E9        30.13S
TROY           PTSUNNY   69  47  45 SE5       30.15S
SAGINAW HB     MOSUNNY   68  39  34 N9        30.12F
$$
MIZ043>046-050>051-056>058-064>065-071>073-077>080-030000-
SOUTHWEST LOWER MICHIGAN

CITY           SKY/WX    TMP DP  RH WIND       PRES   REMARKS
BATTLE CREEK   SUNNY     71  48  43 VRB6      30.11F
BENTON HARBOR  MOSUNNY   60  45  57 N8        30.10F
BIG RAPIDS     MOSUNNY   70  32  24 S6        30.11S HAZE
COLDWATER      SUNNY     67  49  52 SE7       30.11F
FREMONT        FAIR      71  34  26 SE7       30.10S
HOLLAND        SUNNY     66  49  54 NW6       30.11F
GRAND RAPIDS   MOSUNNY   71  49  45 SE5       30.11F
IONIA          FAIR      71  45  39 SE3       30.10F
KALAMAZOO      SUNNY     72  49  44 VRB6      30.10F
LUDINGTON      MOSUNNY   62  35  35 W3        30.13F
MARSHALL       SUNNY     70  48  46 SE5       30.10F
MOUNT PLEASANT SUNNY     70  40  33 SE6       30.11F
MUSKEGON       PTSUNNY   65  42  43 W8        30.11F
SOUTH HAVEN    SUNNY     62  44  51 N6        30.10S
$$
MIZ016>042-030000-
NORTHERN LOWER MICHIGAN

CITY           SKY/WX    TMP DP  RH WIND       PRES   REMARKS
ALPENA         SUNNY     64  33  31 SE15      30.14F
BEAVER ISLAND  MOSUNNY   62  31  31 CALM      30.13F
BELLAIRE       MOSUNNY   70  37  29 W3        30.09S
CADILLAC       SUNNY     70  35  27 S8        30.11S
CHARLEVOIX     MOSUNNY   56  36  46 NW5       30.15S
FRANKFORT      MOSUNNY   61  37  40 W6        30.12F
GAYLORD        SUNNY     71  34  25 S10       30.11S
GRAYLING       SUNNY     71  34  25 S6        30.12F
HARBOR SPRINGS SUNNY     55  41  59 S6        30.11S
HOUGHTON LAKE  SUNNY     68  39  34 SE9       30.12F
MANISTEE       MOSUNNY   59  39  47 W7        30.13F
OSCODA         MOSUNNY   63  32  31 SE8       30.15F
PELLSTON       SUNNY     68  36  30 N10       30.12S
ROGERS CITY    SUNNY     67  36  32 SE12      30.13S
TRAVERSE CITY  PTSUNNY   62  39  42 NE6       30.10F
$$
MIZ007>008-015-030000-
EASTERN UPPER MICHIGAN

CITY           SKY/WX    TMP DP  RH WIND       PRES   REMARKS
KINROSS        SUNNY     66  36  32 S10       30.12F
MACKINAC ISLAN SUNNY     59  33  37 E8        30.13S
NEWBERRY       SUNNY     65  35  32 S12       30.11F
S. S. MARIE    SUNNY     69  36  29 SW10      30.10F
MUNISING         N/A     70  38  31 S14G22    30.05S
$$
MIZ004>006-011>014-085-030000-
CENTRAL UPPER MICHIGAN

CITY           SKY/WX    TMP DP  RH WIND       PRES   REMARKS
MANISTIQUE     MOSUNNY   55  37  49 S5        30.11F
ESCANABA       SUNNY     63  41  45 S12       30.08F
MENOMINEE      MOSUNNY   66  39  37 S13       30.08S
SAWYER-GWINN   SUNNY     68  41  37 S17G26    30.05S
$$
MIZ001>003-009>011-084-030000-
WESTERN UPPER MICHIGAN

CITY           SKY/WX    TMP DP  RH WIND       PRES   REMARKS
IRON MOUNTAIN  SUNNY     71  42  35 SE10G20   30.04F
HOUGHTON       PTSUNNY   65  35  33 SE8       29.99F
COPPER HARBOR    N/A     61  37  41 SW3       29.99F
IRONWOOD       MOSUNNY   73  41  31 S8G18     29.93S
$$

ABBREVIATIONS USED IN REMARKS
   TC - TEMPERATURE IN CELSIUS
  WCI - WIND CHILL INDEX
   HX - HEAT INDEX
  VSB - VISIBILITY




USA.gov is the U.S. government's official web portal to all federal, state and local government web resources and services.